DECAYED

STARLINK-2242, 48587 (Decayed)

Orbit data source: Space-Track

STARLINK-2242, 48587 was a payload satellite owned by SpaceX/Seattle (US) in LEO that was launched on Sat, 15 May 2021 UTC via an FALCON 9 launch vehicle from the Air Force Eastern Test Range (AFETR). Payload-class satellites include a variety of spacecraft equipped with specific instruments for various scientific and technological missions. These include communications satellites like Starlink; space stations such as the ISS; scientific satellites like the Hubble; Earth observation satellites from companies like Planet Labs, Umbra, and HawkEye 360; GPS; miniature CubeSats for education and research; and military/defense satellites.

Not visible in the next 10 days
Identifier
48587, 2021-041AL
Orbit
Decayed
Country
Flag of USUS
Related business
Manufacturer
SpaceX/Seattle
Mission
Decayed Commercial Communications
Bus & Motor
STARLINK, Unknown motor
Mass
260 kg wet, ~248 kg dry
Launch date (UTC)
2021-05-15 (5 years ago)
Launch vehicle
FALCON 9
Launch site
Air Force Eastern Test Range (AFETR)
Object type
Payload
Rocket body
Debris
Shape & HBR
Box + 1 Pan, 10.1 m
Radar Cross Section
13.562 m², Large (>1 m²)

Expand to show TLE details & history
Last TLE update: 1 year ago

TLE from 1 year ago
0 STARLINK-2242
1 48587U 21041AL  25006.78148885  .05062319  11977-4  15025-2 0  9992
2 48587  53.0334 239.0273 0005130 255.5488 191.2943 16.26372822201375
Epoch: 2025-01-06T18:45Z
TLE epoch observation values (Epoch: 2025-01-06T18:45:20.636Z)
Latitude
53.07493°
Longitude
-64.17233°
Altitude
212.075 km
Speed
7.784 km/s
True Right ascension
21h 35m 02s
True Declination
52° 53' 45"
Sunlit
Object was in daylight at epoch
Visualization orbit readout
Latitude
Unknown
Longitude
Unknown
Altitude
Unknown
Speed
Unknown
Apparent Right ascension
Unknown
Apparent Declination
Unknown
Sunlit
N/A
Visualization observer readout
Local Sidereal Time
21:35:32
Azimuth
Unknown
Elevation
Unknown
Doppler factor
Unknown
Orbital elements
Apogee altitude
205.97 km
Perigee altitude
199.218 km
Semi-major axis
6,580.731 km
Eccentricity
0.00051
Inclination
53.0334°
RAAN
239.0273°
Arg. of periapsis
255.5488°
True anomaly
191.28279°
Mean anomaly
191.2943°
Eccentric anomaly
191.28855°
Mean motion
4.06567 °/min
Orbital period
88.55 mins
BSTAR
0.0015025
Loading maneuver chart data...
Computing Atmospheric mass density...

Documentation

Showing up to 5 results
|